Algona, IA

8:22 PM CST on December 03, 2016 (GMT -0600)
Algona Municipal

Weather History for KAXA - October, 2012

Change the Weather History Date:

Tuesday, October 16, 2012

  Actual Average Record
Temperature  
Mean Temperature 60 °F -  
Max Temperature 69 °F 58 °F 75 °F (1996)
Min Temperature 50 °F 38 °F 26 °F (2003)
Degree Days  
Heating Degree Days 6    
Growing Degree Days 10 (Base 50)    
Moisture  
Dew Point 46 °F    
Average Humidity 64    
Maximum Humidity 82    
Minimum Humidity 43    
Precipitation  
Precipitation 0.00 in - - ()
Sea Level Pressure  
Sea Level Pressure 29.52 in    
Wind  
Wind Speed 12 mph (South)    
Max Wind Speed 17 mph    
Max Gust Speed 21 mph    
Visibility 10 miles    
Events      
Averages and records for this station are not official NWS values.
T = Trace of Precipitation, MM = Missing Value Source: NWS Daily Summary

Daily Weather History Graph

Daily Weather History Graph

Search for Another Location

Airport or City:

Trip Planner

Search our weather history database for the weather conditions in past years. The results will help you decide how hot, cold, wet, or windy it might be!

Date:

Astronomy

Oct. 16, 2012 Rise Set
Actual Time 7:32 AM CDT 6:31 PM CDT
Civil Twilight 7:03 AM CDT 7:00 PM CDT
Nautical Twilight 6:30 AM CDT 7:33 PM CDT
Astronomical Twilight 5:57 AM CDT 8:06 PM CDT
Moon 8:59 AM CDT (10/16) 7:13 PM CDT (10/16)
Length of Visible Light 11h 56m
Length of Day
10h 59m
New Moon, 2% of the Moon is Illuminated
Oct 16
New Moon
Oct 21
First Quarter
Oct 29
Full
Nov 6
Last Quarter
Nov 13
New

Hourly Weather History & Observations

Time (CDT) Temp. Dew Point Humidity Pressure Visibility Wind Dir Wind Speed Gust Speed Precip Events Conditions
12:15 AM 55.4 °F 42.8 °F 63% 29.75 in 10.0 mi SSE 17.3 mph - N/A   Clear
12:35 AM 53.6 °F 42.8 °F 67% 29.75 in 10.0 mi SSE 15.0 mph - N/A   Clear
12:55 AM 51.8 °F 42.8 °F 71% 29.74 in 10.0 mi SSE 15.0 mph - N/A   Clear
1:15 AM 51.8 °F 42.8 °F 71% 29.73 in 10.0 mi SSE 15.0 mph - N/A   Clear
1:35 AM 53.6 °F 42.8 °F 67% 29.73 in 10.0 mi SSE 15.0 mph - N/A   Clear
1:55 AM 53.6 °F 42.8 °F 67% 29.72 in 10.0 mi South 15.0 mph - N/A   Clear
2:15 AM 53.6 °F 42.8 °F 67% 29.71 in 10.0 mi South 17.3 mph - N/A   Clear
2:35 AM 55.4 °F 42.8 °F 63% 29.70 in 10.0 mi SSE 13.8 mph 20.7 mph N/A   Clear
2:55 AM 53.6 °F 42.8 °F 67% 29.69 in 10.0 mi SSE 15.0 mph - N/A   Clear
3:15 AM 51.8 °F 42.8 °F 71% 29.68 in 10.0 mi South 15.0 mph - N/A   Clear
3:35 AM 51.8 °F 42.8 °F 71% 29.67 in 10.0 mi SSE 12.7 mph 19.6 mph N/A   Clear
3:55 AM 51.8 °F 42.8 °F 71% 29.66 in 10.0 mi SSE 12.7 mph - N/A   Clear
4:15 AM 50.0 °F 42.8 °F 76% 29.65 in 10.0 mi SSE 11.5 mph - N/A   Clear
4:35 AM 51.8 °F 44.6 °F 76% 29.63 in 10.0 mi SSE 13.8 mph - N/A   Clear
4:55 AM 50.0 °F 44.6 °F 82% 29.62 in 10.0 mi SSE 12.7 mph - N/A   Clear
5:15 AM 50.0 °F 44.6 °F 82% 29.62 in 10.0 mi SSE 13.8 mph - N/A   Clear
5:35 AM 50.0 °F 44.6 °F 82% 29.60 in 10.0 mi SSE 13.8 mph - N/A   Clear
5:55 AM 50.0 °F 44.6 °F 82% 29.59 in 10.0 mi SSE 17.3 mph - N/A   Clear
6:15 AM 50.0 °F 44.6 °F 82% 29.58 in 10.0 mi SSE 16.1 mph - N/A   Clear
6:35 AM 50.0 °F 44.6 °F 82% 29.57 in 10.0 mi SSE 16.1 mph - N/A   Clear
7:15 AM 50.0 °F 44.6 °F 82% 29.56 in 10.0 mi SSE 17.3 mph - N/A   Clear
7:55 AM 50.0 °F 44.6 °F 82% 29.56 in 10.0 mi SSE 13.8 mph - N/A   Mostly Cloudy
8:15 AM 50.0 °F 44.6 °F 82% 29.56 in 10.0 mi SSE 13.8 mph - N/A   Mostly Cloudy
8:35 AM 50.0 °F 44.6 °F 82% 29.56 in 10.0 mi SSE 10.4 mph - N/A   Scattered Clouds
8:55 AM 51.8 °F 44.6 °F 76% 29.56 in 10.0 mi South 11.5 mph - N/A   Partly Cloudy
9:15 AM 53.6 °F 46.4 °F 77% 29.55 in 10.0 mi South 12.7 mph - N/A   Partly Cloudy
9:35 AM 53.6 °F 46.4 °F 77% 29.55 in 10.0 mi South 12.7 mph - N/A   Scattered Clouds
9:55 AM 53.6 °F 46.4 °F 77% 29.55 in 10.0 mi South 12.7 mph - N/A   Partly Cloudy
10:15 AM 53.6 °F 46.4 °F 77% 29.53 in 10.0 mi South 11.5 mph - N/A   Partly Cloudy
10:35 AM 55.4 °F 48.2 °F 77% 29.53 in 10.0 mi South 11.5 mph - N/A   Partly Cloudy
10:55 AM 59.0 °F 48.2 °F 67% 29.52 in 9.0 mi South 9.2 mph - N/A   Clear
11:15 AM 59.0 °F 48.2 °F 67% 29.52 in 6.0 mi SSW 9.2 mph - N/A   Haze
11:35 AM 60.8 °F 48.2 °F 63% 29.51 in 8.0 mi SW 8.1 mph - N/A   Clear
11:55 AM 62.6 °F 48.2 °F 59% 29.50 in 9.0 mi SW 5.8 mph - N/A   Clear
12:15 PM 62.6 °F 48.2 °F 59% 29.49 in 10.0 mi West 8.1 mph - N/A   Clear
12:35 PM 62.6 °F 48.2 °F 59% 29.50 in 10.0 mi West 9.2 mph - N/A   Clear
12:55 PM 64.4 °F 48.2 °F 56% 29.48 in 10.0 mi SW 5.8 mph - N/A   Clear
1:15 PM 64.4 °F 48.2 °F 56% 29.48 in 10.0 mi Variable 3.5 mph - N/A   Clear
1:35 PM 64.4 °F 48.2 °F 56% 29.47 in 7.0 mi NW 4.6 mph - N/A   Clear
1:55 PM 66.2 °F 48.2 °F 52% 29.46 in 10.0 mi WSW 5.8 mph - N/A   Clear
2:15 PM 66.2 °F 48.2 °F 52% 29.45 in 10.0 mi Variable 3.5 mph - N/A   Clear
2:35 PM 68.0 °F 48.2 °F 49% 29.44 in 10.0 mi SSW 4.6 mph - N/A   Clear
2:55 PM 68.0 °F 48.2 °F 49% 29.44 in 10.0 mi WSW 8.1 mph - N/A   Clear
3:15 PM 69.8 °F 48.2 °F 46% 29.43 in 10.0 mi Variable 5.8 mph 13.8 mph N/A   Clear
3:35 PM 69.8 °F 48.2 °F 46% 29.43 in 10.0 mi West 8.1 mph 15.0 mph N/A   Clear
3:55 PM 69.8 °F 48.2 °F 46% 29.42 in 10.0 mi West 6.9 mph - N/A   Clear
4:15 PM 69.8 °F 46.4 °F 43% 29.42 in 10.0 mi West 5.8 mph - N/A   Clear
4:35 PM 69.8 °F 46.4 °F 43% 29.41 in 10.0 mi NW 4.6 mph - N/A   Clear
4:55 PM 69.8 °F 46.4 °F 43% 29.41 in 10.0 mi Variable 4.6 mph - N/A   Clear
5:15 PM 69.8 °F 46.4 °F 43% 29.41 in 10.0 mi Calm Calm - N/A   Clear
5:35 PM 69.8 °F 46.4 °F 43% 29.40 in 10.0 mi Calm Calm - N/A   Clear
5:55 PM 69.8 °F 46.4 °F 43% 29.40 in 9.0 mi Calm Calm - N/A   Clear
6:15 PM 68.0 °F 46.4 °F 46% 29.40 in 8.0 mi ESE 3.5 mph - N/A   Clear
6:35 PM 68.0 °F 46.4 °F 46% 29.40 in 2.0 mi SE 4.6 mph - N/A   Haze
6:55 PM 66.2 °F 46.4 °F 49% 29.40 in 10.0 mi SE 4.6 mph - N/A   Clear
7:15 PM 62.6 °F 46.4 °F 55% 29.41 in 10.0 mi SSE 4.6 mph - N/A   Clear
7:35 PM 62.6 °F 46.4 °F 55% 29.41 in 6.0 mi Calm Calm - N/A   Haze
7:55 PM 60.8 °F 46.4 °F 59% 29.41 in 7.0 mi SSE 4.6 mph - N/A   Clear
8:15 PM 60.8 °F 46.4 °F 59% 29.42 in 10.0 mi South 9.2 mph - N/A   Clear
8:35 PM 57.2 °F 46.4 °F 67% 29.42 in 10.0 mi SW 6.9 mph - N/A   Clear
8:55 PM 59.0 °F 46.4 °F 63% 29.42 in 10.0 mi SW 4.6 mph - N/A   Clear
9:15 PM 57.2 °F 44.6 °F 63% 29.41 in 10.0 mi SW 4.6 mph - N/A   Clear
9:35 PM 57.2 °F 44.6 °F 63% 29.42 in 8.0 mi SW 4.6 mph - N/A   Clear
9:55 PM 59.0 °F 44.6 °F 59% 29.41 in 9.0 mi South 4.6 mph - N/A   Clear
10:15 PM 53.6 °F 44.6 °F 72% 29.40 in 10.0 mi SSE 4.6 mph - N/A   Clear
10:35 PM 55.4 °F 46.4 °F 72% 29.40 in 10.0 mi South 5.8 mph - N/A   Clear
10:55 PM 53.6 °F 44.6 °F 72% 29.40 in 10.0 mi South 6.9 mph - N/A   Clear
11:15 PM 51.8 °F 42.8 °F 71% 29.40 in 10.0 mi South 6.9 mph - N/A   Clear
11:35 PM 53.6 °F 44.6 °F 72% 29.40 in 10.0 mi SSW 8.1 mph - N/A   Clear
11:55 PM 55.4 °F 44.6 °F 67% 29.39 in 10.0 mi SSW 5.8 mph - N/A   Clear